Terminal Aerodrome Forecast
Issued by NWS

Home | Current Version | Previous Version | Graphics & Text | Print | Product List | Glossary On
Versions: 1 2 3 4 5 6 7 8 9 10 11 12 13 14 15 16 17
000
FTUS43 KGRB 240900 AAB
TAFRHI
TAF AMD
KRHI 240959Z 2410/2506 11008KT 6SM -SHSN SCT025 OVC040
      WS020/15030KT
     FM241500 11011G16KT 2SM -SN BKN009 OVC015 WS020/15040KT
     FM242200 11012G20KT 2SM -RASN BR BKN004 OVC010 WS020/14045KT
     FM250200 13008KT 2SM -RASN BR BKN003 OVC010=

USA.gov is the U.S. government's official web portal to all federal, state and local government web resources and services.